Wind_Speed
16 17 18 15 14 12 13 13 13 14 13 11 12 16 19 21 22 20 17 16 16 15 16 18 19 16 17 18 17 15 14 15 14 12 10 7 8 7 7 6 5 6 8
18 17 17 16 14 15 16 15 15 14 13 12 12 14 17 20 22 19 16 14 14 14 16 18 21 21 19 19 18 16 15 14 13 12 10 8 8 8 7 6 5 6 8
17 16 16 16 15 16 15 14 14 15 13 12 13 14 15 17 20 20 17 15 14 14 16 17 18 19 19 20 20 19 16 14 13 12 11 10 9 8 8 7 6 6 6
18 16 15 14 16 16 15 14 13 14 13 12 12 14 15 16 16 17 18 18 16 14 16 16 16 17 17 18 21 21 19 16 15 15 14 12 10 9 8 8 8 7 6
19 17 15 15 16 17 17 14 13 14 13 14 13 13 14 17 16 15 15 18 20 18 17 18 17 17 18 18 19 20 21 21 20 18 16 13 12 9 8 7 6 5 6
20 17 17 16 18 18 18 16 14 15 14 14 14 13 12 16 16 14 14 17 21 21 20 20 19 18 18 16 15 15 18 19 19 17 16 14 12 10 7 7 6 5 5
21 18 13 15 17 18 18 17 15 16 16 15 14 12 10 13 14 13 13 16 20 22 22 22 21 20 18 16 14 14 14 13 12 12 12 13 13 11 9 8 8 7 6
23 24 15 14 16 17 16 17 18 18 18 17 16 14 11 10 11 11 12 15 19 21 22 23 23 21 20 17 15 14 14 13 12 11 11 13 14 12 11 11 12 12 11
25 23 25 18 14 17 19 19 20 20 19 18 17 16 13 11 11 10 10 12 15 18 20 22 23 22 20 19 18 16 16 15 14 13 14 15 15 15 15 15 14 14 14
28 26 28 22 18 19 22 23 23 23 22 21 21 20 16 13 13 11 10 10 12 14 17 19 21 22 21 20 19 18 17 18 18 18 18 19 19 20 19 18 18 16 16
27 25 22 22 22 26 25 25 25 25 23 24 24 22 20 17 16 14 13 13 12 13 14 16 18 19 19 19 18 18 17 17 17 18 19 20 22 23 22 20 19 18 18
24 26 25 25 24 30 31 29 26 26 26 25 27 25 24 22 19 17 17 16 15 14 14 15 16 17 17 17 16 16 16 15 16 17 19 20 21 23 23 22 21 20 19
21 26 30 30 28 31 33 31 31 33 31 29 28 27 26 26 24 22 22 20 19 18 17 17 17 17 17 17 17 16 16 16 16 17 19 20 22 23 23 23 22 21 19
14 19 25 30 31 29 26 29 33 37 37 35 33 31 29 29 28 25 23 22 21 19 19 18 19 20 20 19 18 18 18 18 18 17 18 18 19 20 21 21 20 19 19
12 13 16 21 25 27 27 34 31 36 39 37 34 34 31 30 29 26 24 23 22 20 21 20 20 21 21 20 20 19 19 20 20 19 18 18 17 17 18 19 19 20 20
13 14 16 18 20 21 19 28 35 36 41 41 39 36 35 33 31 26 26 24 23 23 23 23 22 20 21 22 22 20 19 20 21 21 20 20 20 19 20 21 22 22 22
14 15 16 16 17 20 19 20 30 37 41 44 42 36 34 35 34 31 27 29 28 26 25 25 25 24 23 24 25 24 22 20 22 22 22 23 21 20 20 20 21 21 20
15 17 18 18 17 18 17 15 12 22 39 41 36 34 31 35 37 36 35 33 33 31 28 27 28 28 26 26 27 27 26 24 24 24 23 22 20 19 20 20 19 19 19
17 18 19 21 21 21 20 18 16 14 22 32 35 41 35 35 36 33 33 35 35 33 31 29 29 31 30 29 29 30 29 29 28 26 24 23 22 22 23 22 21 20 20
21 21 22 23 24 24 22 21 20 18 21 28 27 33 37 34 33 33 35 36 35 34 34 34 33 33 32 33 33 32 31 31 30 27 26 24 24 25 24 22 20 19 20
23 23 24 25 25 26 23 20 20 22 25 27 26 27 28 28 27 29 32 35 35 35 35 34 35 37 36 35 35 34 32 32 31 30 29 26 25 25 23 22 20 20 20
23 24 24 24 25 26 26 24 21 25 28 29 27 26 28 31 30 29 31 36 37 35 34 31 32 34 36 36 37 34 32 32 30 29 29 28 28 27 26 24 23 22 23
24 25 25 24 25 26 27 28 26 27 30 32 29 26 26 30 31 32 34 35 34 33 32 32 31 32 35 35 34 30 29 29 29 29 28 29 29 28 28 27 26 25 24
25 26 25 25 25 27 30 31 30 29 28 29 31 32 32 31 29 29 29 33 34 32 31 32 32 33 34 33 31 29 27 29 31 30 26 26 28 29 29 27 27 25 24
25 24 24 24 25 28 29 30 30 30 28 26 27 28 30 32 32 29 27 28 34 37 37 33 34 37 37 35 32 30 32 35 34 31 29 28 28 29 28 27 27 26 25
25 25 24 26 27 27 26 28 29 29 29 26 25 28 28 27 28 30 30 29 29 33 37 39 37 39 41 37 34 33 34 34 34 31 30 28 28 28 29 28 27 25 25
Wind_Direction
292 284 277 266 255 244 239 231 236 230 229 240 242 235 236 233 233 234 241 251 252 244 235 222 215 206 202 202 204 204 202 200 200 213 232 258 275 261 270 281 270 255 258
290 280 271 261 249 237 239 234 231 227 231 243 246 240 234 229 230 229 232 242 241 234 225 218 213 210 210 210 211 211 214 213 215 226 237 262 271 258 266 263 250 244 249
299 283 268 260 248 242 242 239 234 229 231 239 240 235 234 230 229 226 229 233 228 221 215 214 213 214 216 216 216 217 220 224 227 237 253 272 261 255 260 248 239 229 236
305 286 265 260 252 245 244 243 235 225 224 228 232 234 234 225 226 225 229 230 221 216 215 216 216 215 215 217 219 221 225 230 238 249 261 266 257 255 259 252 235 223 230
292 278 260 265 254 249 247 240 228 220 220 225 234 237 236 229 225 221 226 226 215 210 211 215 216 214 212 216 220 223 229 233 240 248 254 249 248 247 246 244 237 236 243
279 269 256 262 252 246 246 239 226 223 223 228 232 232 231 224 226 226 221 219 214 210 207 212 215 212 211 213 217 224 230 234 241 243 243 240 238 235 232 240 253 263 269
265 259 237 245 249 241 241 241 234 227 224 225 226 232 223 216 221 225 222 217 213 210 208 211 216 214 211 211 214 217 221 227 233 236 240 236 228 224 230 241 253 262 271
262 248 224 230 248 246 238 234 229 227 225 222 225 227 224 214 213 216 219 218 215 214 214 215 216 215 214 216 221 226 227 229 230 235 240 231 224 227 236 249 259 263 267
259 251 245 236 246 253 249 238 231 225 224 222 220 210 216 228 224 220 218 218 217 219 220 221 221 221 223 225 230 238 244 247 248 252 253 243 236 237 244 255 264 268 269
256 255 246 235 242 250 254 244 236 230 227 228 220 216 217 222 229 225 221 216 214 217 220 223 226 228 231 234 237 242 244 249 251 255 258 251 244 245 249 256 263 267 269
254 257 253 247 255 252 249 244 235 234 231 228 225 223 227 230 228 225 228 229 226 222 223 224 224 225 228 231 234 240 244 248 251 254 254 251 247 247 252 258 264 266 269
255 254 253 252 252 255 255 245 236 235 234 232 228 225 229 232 230 230 229 235 239 237 233 231 230 229 230 231 235 242 248 254 258 260 258 257 254 253 254 257 260 264 269
255 252 248 250 248 253 254 240 238 237 234 230 227 224 225 232 233 235 237 245 249 246 243 240 237 233 231 234 237 243 250 256 261 263 261 258 257 255 254 256 257 262 270
250 253 251 250 250 249 245 244 248 235 229 228 230 227 228 232 231 236 240 250 256 253 250 247 246 243 240 242 242 245 250 253 256 259 259 257 255 253 253 254 256 263 269
252 258 258 253 250 245 246 238 243 236 225 227 229 228 229 232 232 235 241 244 247 247 249 245 244 246 246 244 247 251 252 253 254 256 255 254 253 254 256 258 262 266 269
253 256 261 258 253 262 262 247 242 243 229 220 225 227 231 232 227 234 242 245 244 242 243 238 237 242 246 244 248 252 253 253 254 254 254 254 255 258 261 265 268 268 270
244 247 255 261 261 264 264 264 246 241 227 222 221 222 229 230 230 237 244 246 247 246 243 243 241 243 248 248 248 249 250 252 255 256 255 256 260 264 268 271 272 269 266
258 254 255 261 266 266 261 259 242 239 224 222 218 219 225 234 235 238 245 247 248 250 248 250 251 247 247 248 251 248 250 253 258 259 258 260 259 259 265 268 267 266 268
268 262 259 259 260 261 260 250 243 253 235 219 217 219 221 235 237 241 241 245 246 249 250 254 254 253 247 246 252 253 252 254 259 259 260 258 256 261 262 263 263 265 270
274 268 263 260 259 259 258 255 245 237 220 227 232 234 233 240 238 242 245 243 243 249 255 257 254 255 253 250 249 251 254 256 258 257 260 259 262 265 263 262 261 265 272
272 269 267 263 258 254 253 253 239 232 227 230 229 232 241 240 242 246 248 245 246 251 258 255 251 251 250 251 248 250 254 256 256 256 257 256 260 262 259 258 259 266 272
277 275 270 265 257 250 251 252 243 235 233 233 237 243 242 240 246 249 251 249 247 250 252 251 250 247 248 249 247 248 252 253 252 251 251 251 255 260 260 260 262 267 271
278 274 271 263 256 249 246 246 247 243 239 238 241 245 246 249 251 250 251 250 248 244 245 248 247 244 247 248 247 246 245 245 245 246 248 253 256 256 259 262 260 264 270
278 275 270 263 256 252 249 247 248 248 244 242 243 243 245 249 254 249 249 248 246 246 247 249 250 249 245 243 244 242 241 243 247 250 251 256 258 260 261 258 261 267 270
280 276 274 268 261 256 254 251 246 243 239 236 236 239 241 244 246 244 248 251 247 246 248 249 249 247 245 246 244 241 240 244 248 252 253 256 255 261 260 260 265 266 266
284 280 274 268 264 260 254 252 247 241 235 234 237 238 238 239 241 243 247 254 251 248 249 246 248 247 242 242 242 242 241 244 248 252 252 254 257 262 261 260 264 264 265
Height
5855 5854 5854 5853 5854 5856 5856 5856 5857 5858 5859 5860 5861 5862 5862 5863 5865 5867 5869 5870 5872 5873 5874 5876 5879 5882 5884 5886 5888 5889 5891 5893 5895 5896 5897 5896 5896 5895 5896 5896 5897 5897 5897
5852 5851 5850 5850 5851 5853 5854 5854 5855 5856 5857 5857 5858 5858 5859 5861 5862 5864 5866 5867 5868 5869 5871 5874 5876 5879 5881 5884 5886 5888 5890 5891 5893 5895 5896 5895 5894 5894 5894 5895 5895 5896 5895
5849 5847 5847 5848 5849 5850 5852 5852 5853 5853 5854 5855 5856 5857 5857 5858 5860 5861 5863 5865 5866 5868 5870 5873 5875 5877 5880 5882 5885 5887 5889 5889 5891 5893 5894 5894 5893 5893 5893 5893 5893 5894 5894
5847 5845 5845 5845 5847 5848 5849 5850 5851 5851 5852 5853 5854 5854 5855 5856 5857 5858 5859 5862 5864 5866 5868 5870 5873 5875 5877 5880 5882 5885 5887 5887 5889 5890 5891 5891 5892 5892 5891 5892 5892 5893 5893
5845 5841 5841 5843 5843 5845 5847 5848 5848 5848 5849 5851 5852 5852 5852 5854 5855 5856 5857 5858 5861 5864 5866 5868 5870 5873 5875 5877 5879 5881 5884 5886 5887 5888 5888 5889 5889 5890 5890 5891 5892 5892 5892
5840 5838 5837 5839 5839 5842 5843 5845 5846 5846 5847 5848 5850 5850 5851 5852 5853 5853 5854 5855 5858 5860 5862 5865 5867 5870 5872 5873 5875 5878 5881 5883 5884 5885 5885 5886 5887 5888 5888 5889 5890 5891 5891
5837 5835 5834 5834 5835 5837 5839 5841 5843 5844 5845 5846 5848 5849 5849 5849 5850 5851 5852 5853 5855 5857 5859 5861 5864 5867 5869 5871 5873 5875 5876 5879 5880 5881 5882 5883 5885 5886 5886 5888 5889 5889 5890
5833 5833 5832 5831 5833 5835 5836 5837 5839 5841 5842 5843 5845 5846 5848 5849 5848 5849 5850 5851 5854 5855 5858 5860 5862 5864 5867 5869 5871 5873 5875 5876 5877 5879 5880 5881 5882 5883 5885 5886 5887 5887 5887
5828 5827 5830 5829 5829 5831 5832 5834 5836 5837 5838 5840 5842 5844 5846 5848 5848 5848 5848 5850 5852 5854 5856 5859 5861 5863 5865 5867 5869 5870 5872 5874 5875 5877 5878 5878 5880 5881 5883 5884 5885 5885 5886
5820 5822 5825 5826 5825 5825 5827 5830 5832 5834 5835 5837 5839 5841 5843 5844 5847 5847 5848 5848 5849 5851 5854 5857 5859 5861 5863 5865 5867 5868 5869 5870 5872 5875 5875 5876 5877 5879 5880 5882 5882 5883 5884
5814 5815 5818 5819 5819 5820 5822 5825 5827 5829 5831 5832 5834 5836 5838 5840 5843 5846 5846 5847 5848 5849 5851 5853 5855 5857 5860 5862 5863 5865 5865 5866 5868 5870 5871 5872 5874 5875 5877 5878 5878 5878 5880
5809 5810 5812 5811 5813 5814 5816 5818 5820 5822 5825 5827 5829 5831 5834 5836 5839 5841 5843 5845 5846 5847 5849 5850 5852 5854 5856 5858 5859 5861 5862 5862 5864 5865 5866 5867 5869 5870 5871 5872 5873 5874 5875
5802 5804 5805 5805 5806 5807 5808 5808 5811 5815 5818 5821 5824 5826 5829 5832 5834 5837 5839 5841 5843 5844 5846 5848 5850 5851 5853 5854 5856 5857 5858 5859 5860 5861 5862 5863 5864 5866 5866 5867 5869 5870 5870
5795 5796 5797 5798 5799 5798 5798 5799 5801 5805 5809 5814 5818 5821 5824 5827 5830 5832 5835 5838 5840 5841 5843 5844 5846 5848 5849 5851 5852 5852 5854 5855 5856 5857 5858 5859 5860 5861 5862 5863 5865 5865 5866
5791 5792 5792 5792 5792 5792 5791 5791 5793 5796 5801 5806 5811 5814 5818 5822 5825 5827 5830 5832 5836 5837 5838 5840 5842 5844 5845 5846 5847 5848 5849 5850 5851 5853 5854 5855 5855 5857 5858 5859 5860 5860 5860
5787 5788 5788 5786 5787 5786 5785 5784 5784 5788 5794 5798 5803 5807 5811 5817 5820 5822 5824 5827 5830 5832 5833 5835 5837 5839 5841 5841 5842 5843 5844 5845 5847 5848 5850 5851 5852 5852 5853 5853 5854 5854 5855
5783 5783 5783 5782 5782 5781 5780 5779 5777 5780 5784 5790 5795 5799 5805 5810 5815 5817 5819 5821 5824 5827 5829 5830 5832 5834 5836 5836 5837 5839 5840 5842 5843 5844 5846 5846 5847 5848 5848 5848 5849 5849 5850
5779 5779 5779 5778 5777 5777 5776 5775 5773 5774 5779 5784 5789 5793 5798 5802 5806 5810 5813 5815 5817 5820 5823 5824 5826 5828 5830 5831 5832 5833 5835 5837 5838 5839 5840 5841 5842 5842 5843 5843 5843 5844 5844
5774 5774 5774 5773 5772 5772 5772 5772 5772 5772 5774 5779 5784 5788 5792 5794 5798 5801 5804 5807 5810 5813 5816 5818 5819 5820 5823 5825 5826 5827 5829 5831 5832 5833 5834 5835 5836 5837 5837 5838 5838 5838 5838
5768 5768 5768 5768 5768 5767 5767 5767 5768 5770 5772 5775 5778 5781 5786 5788 5790 5793 5796 5799 5802 5805 5808 5810 5812 5813 5816 5818 5820 5820 5823 5824 5825 5827 5827 5829 5830 5831 5831 5832 5833 5833 5832
5761 5762 5762 5762 5762 5762 5762 5763 5764 5765 5767 5770 5772 5775 5777 5780 5782 5785 5788 5791 5794 5797 5799 5801 5803 5805 5808 5810 5812 5814 5816 5817 5818 5819 5820 5822 5823 5824 5825 5825 5825 5825 5825
5754 5754 5754 5755 5755 5756 5757 5757 5758 5760 5761 5762 5765 5767 5769 5772 5775 5777 5779 5782 5787 5789 5790 5792 5795 5797 5799 5802 5804 5806 5808 5810 5811 5812 5814 5815 5816 5818 5819 5820 5820 5820 5820
5746 5746 5746 5747 5748 5749 5750 5751 5752 5753 5754 5756 5759 5761 5763 5766 5768 5770 5772 5774 5777 5779 5782 5784 5787 5789 5791 5795 5797 5800 5802 5803 5803 5804 5807 5808 5809 5810 5812 5813 5813 5813 5813
5739 5738 5738 5738 5739 5740 5741 5743 5744 5745 5746 5748 5751 5754 5757 5759 5761 5762 5764 5767 5769 5771 5774 5776 5779 5782 5784 5786 5789 5792 5795 5795 5795 5797 5800 5801 5802 5803 5805 5806 5807 5806 5807
5730 5729 5728 5728 5729 5730 5732 5734 5735 5736 5738 5740 5743 5746 5748 5750 5754 5756 5759 5760 5762 5763 5765 5767 5769 5773 5777 5778 5781 5783 5785 5787 5788 5790 5792 5793 5794 5796 5797 5799 5799 5799 5800
5721 5720 5720 5719 5720 5721 5724 5724 5725 5727 5730 5733 5736 5739 5742 5745 5747 5748 5750 5751 5752 5753 5755 5758 5761 5764 5767 5768 5772 5774 5776 5778 5780 5783 5785 5787 5788 5789 5789 5790 5792 5792 5793